Location: Baumgarten
(49.0970°N, 12.7493°E)
Time: 00:55:46
(UTC+00:00)

Gblst 52 Del rocket - Pass Details

Date: 05 July 2020
Orbit: 805 x 1366 km, 51.5° (Epoch: 11 August)

Event Time Altitude Azimuth Distance (km) Brightness Sun altitude
Rises 21:07:18 0° 291° (WNW) 3,356 8.2 -12.9°
Reaches altitude 10° 21:09:41 10° 289° (WNW) 2,455 7.3 -13.1°
Maximum altitude 21:15:21 70° 207° (SSW) 953 4.3 -13.5°
Enters shadow 21:20:34 16° 127° (SE) 2,321 5.9 -13.9°
